User: anonymous   Login
Location: Shenandoah County Park
(38.9356°N, 78.4524°W)
Time: 19:41:39
(UTC-04:00)
Language:

XW-2B - Orbit

View from above orbital plane
View from above orbital plane
View from above satellite
View from above satellite

Ground track
Ground track

The orbit data is extracted from the following two-line orbital elements,

1 40911U 15049N   24103.86792197  .00030818  00000-0  70253-3 0  9993
2 40911  97.4769 121.2723 0009233 152.3149 207.8592 15.42824023474479
Epoch (UTC): 12 April 2024 20:49:48
Eccentricity: 0.0009233
inclination: 97.4769°
perigee height: 431 km
apogee height: 444 km
right ascension of ascending node: 121.2723°
argument of perigee: 152.3149°
revolutions per day: 15.42824023
mean anomaly at epoch: 207.8592°
orbit number at epoch: 47447

The dashed part of the orbit path shows where the satellite is in the earth's shadow,  

DLR